sat.trackr.live / text

‹ back to catalog

STARLINK-4152

NORAD 53136 · 2022-083E

PAYLOAD ACTIVE UNKNOWN

§ Identity

Operator
Country
US
Launch date
2022-07-17
Launch site
AFETR
Launch vehicle
Mass (kg)
RCS (m²)

Purposes: comms

External: N2YO · Heavens-Above · Gunter

§ Orbital elements

Epoch: 2026-09-19T15:33:08.534880Z

Period
93.83 min
Inclination
53.1619°
Eccentricity
0.0001245
Mean motion
15.34771593 rev/d
Perigee alt
460.7 km
Apogee alt
462.5 km
Semi-major
6,839.7 km
B*
-1.9142e-3
RAAN
9.6225°
Arg perigee
71.2021°
Mean anomaly
288.9117°
Rev number
23,167

§ Raw data

STARLINK-41521 53136U 22083E   26262.64801545 -.00065260  00000+0 -19142-2 0  99932 53136  53.1619   9.6225 0001245  71.2021 288.9117 15.34771593231674

JSON: /api/v1/satellites/53136 · /tle

For live sub-satellite position, see the globe view (requires WebGL).

§ Visibility from observer

Set your observer location to see the next 7 days of passes ≥ 10°. The values pass through the URL so the page stays shareable.

No JS? Fill the form by hand. The geolocation button needs JavaScript.